Regional Weather Roundup
Issued by NWS

Home | Current Version | Previous Version | Text Only | Print | Product List | Glossary Off
Versions: 1 2 3 4 5 6 7 8 9 10 11 12 13 14 15 16 17 18 19 20 21 22 23 24 25 26 27 28 29 30 31 32 33 34 35 36 37 38 39 40 41 42 43 44 45 46 47 48 49 50

000
ASUS43 KMPX 271510
RWRMN
WEATHER ROUNDUP FOR MINNESOTA
NATIONAL WEATHER SERVICE TWIN CITIES/CHANHASSEN MN
1000 AM CDT SAT AUG 27 2016


NOTE: "FAIR" INDICATES FEW OR NO CLOUDS BELOW 12,000 FEET WITH NO
SIGNIFICANT WEATHER AND/OR OBSTRUCTIONS TO VISIBILITY. N/A MEANS
CURRENT SKY AND/OR WEATHER CONDITIONS ARE NOT AVAILABLE.

MNZ060>063-068>070-271600-
   Twin Cities Metro

CITY           SKY/WX    TMP DP  RH WIND       PRES   REMARKS
TWIN CITIES    LGT RAIN  64  59  83 SE8       30.07S
ST PAUL        CLOUDY    64  59  83 SE6       30.08R
CRYSTAL        LGT RAIN  64  59  83 E3        30.06S
BLAINE         RAIN      64  63  94 E5        30.08R
LAKEVILLE      DRIZZLE   61  61 100 CALM      30.07R
EDEN PRAIRIE   RAIN      64  60  87 CALM      30.07R FOG
LAKEVILLE      DRIZZLE   61  61 100 CALM      30.07R
SOUTH ST PAUL  PTSUNNY   64  61  88 CALM      30.07S
LAKE ELMO      FAIR      63  61  94 E3        30.08F
$$
MNZ001>005-007-008-013>017-022>024-027-028-271600-
   Northwest Minnesota

CITY           SKY/WX    TMP DP  RH WIND       PRES   REMARKS
BEMIDJI        PTSUNNY   64  58  81 S10       30.03R
HALLOCK        CLOUDY    61  57  88 S9        29.94S
ROSEAU         RAIN      61  55  82 S10       29.99R
WARROAD        RAIN      61  57  88 S3        30.00R
CROOKSTON      RAIN      57  57 100 SE7       29.99S
FOSSTON        CLOUDY    61  57  88 S7        30.01R
DETROIT LAKES  CLOUDY    66  59  77 S8        30.03R
MOORHEAD       CLOUDY    64  61  88 S12       29.98S
PARK RAPIDS    CLOUDY    65  55  70 SE13      30.03S
MAHNOMEN       CLOUDY    64  58  82 S7        29.99S
$$
MNZ006-009>011-018-025>026-271600-
   North Central Minnesota

CITY           SKY/WX    TMP DP  RH WIND       PRES   REMARKS
BAUDETTE       CLOUDY    65  57  75 S9        30.00S
FLAG ISLAND    CLOUDY    66  59  77 S3        29.98R HAZE
INTL FALLS     CLOUDY    68  57  68 VRB5      30.04S
WASKISH        CLOUDY    64  57  77 S5        30.01F
BIG FORK       MOSUNNY   66  57  72 S7        30.05S
LONGVILLE      CLOUDY    63  59  88 SE3       30.04F
GRAND RAPIDS   CLOUDY    62  56  80 SE7       30.08F
CRANE LAKE     MOSUNNY   64  57  77 S7        30.08F
ORR            CLOUDY    64  54  68 S9        30.05S
COOK           CLOUDY    64  57  77 S7        30.08S
WALKER         PTSUNNY   66  57  72 SE12G17   30.03S
$$
MNZ012-019>021-037-271600-
   Northeast Minnesota

CITY           SKY/WX    TMP DP  RH WIND       PRES   REMARKS
DULUTH         LGT RAIN  62  59  90 SE6       30.10S
ELY            CLOUDY    63  55  77 SE3       30.09S
HIBBING        CLOUDY    59  56  89 SE7       30.08F
EVELETH        CLOUDY    63  57  80 SE5       30.10S
DULUTH HARBOR  DRIZZLE   64  59  82 CALM      30.10S
TWO HARBORS    CLOUDY    64  61  88 E3        30.09S
SILVER BAY     MOSUNNY   63  61  94 CALM      30.09S
GRAND MARAIS     N/A     63  58  83 E5        30.11S
G MARAIS ARPRT CLOUDY    59  55  88 CALM      30.14S
$$
MNZ029>031-032-039>041-046>048-054>057-064-271600-
   West Central Minnesota

CITY           SKY/WX    TMP DP  RH WIND       PRES   REMARKS
FERGUS FALLS   PTSUNNY   64  59  82 S12       30.03R
WHEATON        MOSUNNY   70  61  73 S10G16    30.03R
MORRIS         MOSUNNY   68  59  73 S14       30.02S
ALEXANDRIA     CLOUDY    66  57  72 S14       30.03F
ELBOW LAKE     CLOUDY    65  59  83 S12       30.02S
WADENA         MOSUNNY   63  57  82 SE6       30.02F
GLENWOOD       SUNNY     63  57  82 SE9       30.04F
APPLETON       CLOUDY    64  59  82 S6        30.03R
BENSON         CLOUDY    64  55  72 S9        30.02F
ORTONVILLE     MOSUNNY   66  57  72 S7        30.02R
MADISON        SUNNY     64  61  88 S10       30.03R
WILLMAR        FAIR      63  61  94 SE7       30.05F
$$
MNZ033>034-036-042>043-049>051-058-059-271600-
   Central Minnesota

CITY           SKY/WX    TMP DP  RH WIND       PRES   REMARKS
ST CLOUD       LGT RAIN  61  61 100 SE5       30.06F
SAUK CENTRE    CLOUDY    62  59  88 SE9       30.04F
PAYNESVILLE    LGT RAIN  61  60  96 SE5       30.06S
AITKIN         MOSUNNY   66  57  72 SE5       30.04F
PINE RIVER     CLOUDY    63  57  82 SE9       30.07F
BRAINERD       PTSUNNY   63  59  87 SE7       30.06F
STAPLES        MOSUNNY   64  57  77 S9        30.04S
LONG PRAIRIE   PTSUNNY   63  57  82 SE6       30.04F
LITTLE FALLS   CLOUDY    63  57  82 SE6       30.06S
LITCHFIELD     LGT RAIN  63  61  94 SE7       30.07F
BUFFALO        LGT RAIN  62  59  89 SE3       30.08F
MAPLE LAKE     LGT RAIN  63  62  95 SE3       30.07F
HUTCHINSON     LGT RAIN  61  60  96 E7        30.07F
$$
MNZ037-044-045-052-053-271600-
   East Central Minnesota

CITY           SKY/WX    TMP DP  RH WIND       PRES   REMARKS
PRINCETON      LGT RAIN  63  61  94 SE3       30.07F
MORA           CLOUDY    59  55  88 SE3       30.09F
CAMBRIDGE      CLOUDY    64  57  77 E6        30.06S
RUSH CITY      RAIN      60  58  94 CALM      30.08S
MOOSE LAKE     LGT RAIN  59  55  88 CALM      30.07F
HINCKLEY       LGT RAIN  61  59  94 E5        30.08F
CLOQUET        LGT RAIN  59  55  88 E3        30.10S
MCGREGOR       CLOUDY    63  55  77 SE9       30.07F
$$
MNZ071>073-080-081-089-090-097-098-271600-
   Southwest Minnesota

CITY           SKY/WX    TMP DP  RH WIND       PRES   REMARKS
MONTEVIDEO     CLOUDY    64  61  88 S13       30.04F
GRANITE FALLS  CLOUDY    63  60  90 E9G16     30.04F
CANBY          PTSUNNY   64  59  85 E7        30.05R
MARSHALL       CLOUDY    60  59  96 SE10      30.03F
REDWOOD FALLS  CLOUDY    60  58  92 E8        30.03F
OLIVIA         CLOUDY    59  55  88 E9        30.03F FOG
PIPESTONE      CLOUDY    61  59  94 E3        30.03R
WINDOM         CLOUDY    63  61  94 E6        30.04S FOG
WORTHINGTON    CLOUDY    62  61  96 S5        30.03F
JACKSON          N/A     61  59  94 S5        30.05S FOG
TRACY          CLOUDY    61  60  98 E8        30.03F FOG
SLAYTON        CLOUDY    59  59 100 E3        30.04S
$$
MNZ065>067-074>077-082>085-091>093-271600-
   South Central Minnesota

CITY           SKY/WX    TMP DP  RH WIND       PRES   REMARKS
MANKATO        CLOUDY    61  57  88 NE6       30.06R
NEW ULM        RAIN      61  61 100 E6        30.04F
ST JAMES       CLOUDY    57  55  94 E3        30.06S
FAIRMONT       LGT RAIN  61  60  97 CALM      30.04F FOG
GLENCOE        LGT RAIN  62  62 100 E5        30.07S
FARIBAULT      HVY RAIN  61  61 100 CALM      30.06S
OWATONNA       HVY RAIN  63  59  88 E5        30.05S
WASECA         DRIZZLE   59  57  94 E7        30.06S
ALBERT LEA     CLOUDY    63  61  94 SE3       30.05S FOG
$$
MNZ078>079-086>088-094>096-271600-
   Southeast Minnesota

CITY           SKY/WX    TMP DP  RH WIND       PRES   REMARKS
ROCHESTER      CLOUDY    62  60  93 E9        30.06F
RED WING       CLOUDY    64  59  82 E8        30.05F
STANTON        CLOUDY    63  61  94 NE3       30.04F
DODGE CENTER   RAIN      61  59  94 E8        30.06S
WINONA         CLOUDY    63  59  88 SE8       30.06F
AUSTIN         CLOUDY    63  59  88 SE7       30.04S
PRESTON        CLOUDY    63  59  88 SE8       30.06F
$$
ABBREVIATIONS USED IN REMARKS
   TC - TEMPERATURES IN CELSIUS
  WCI - WIND CHILL INDEX
   HX - HEAT INDEX
  VSB - VISIBILITY
$$




USA.gov is the U.S. government's official web portal to all federal, state and local government web resources and services.